contact:dominique.lefevre@mio.osupytheas.fr, maurice.libes@osupytheas.fr, didier.mallarino@osupytheas.fr
Project:EMSO http://www.emso-fr.org/EMSO-France
Depth: 2436.0 m
Title:EMSO Ligure Ouest : Data MII capteur AQUADOPP
Date,Latitude,Longitude,X_East,Y_North,Z_Up,Amplitude_X,Amplitude_Y,Amplitude_Z,Batterie,SoundSpeed,Heading,Pitch,Roll,Pressure,TIS,Speed,Direction
, degrees North, degrees East, m.s-1, m.s-1,m.s-1, 1, 1, 1, Volt, m.s-1, degree, degree, degree, dbar, degree_C, m.s-1, degree
2023-05-28T00:04:03,42.805,6.029,-0.031,-0.007,-0.046,102.0,102.0,102.0,13.4,1505.2,333.4,-0.8,1.8,2471.424,13.28,0.031,257.3
2023-05-28T00:07:03,42.805,6.029,0.006,0.0,-0.017,103.0,102.0,101.0,13.4,1505.2,329.6,-0.7,1.8,2471.459,13.29,0.006,90.0
2023-05-28T00:10:03,42.805,6.029,-0.016,-0.019,-0.021,102.0,102.0,101.0,13.4,1505.2,324.9,-0.8,1.8,2471.397,13.29,0.024,220.1
2023-05-28T00:13:03,42.805,6.029,-0.012,-0.01,-0.05,104.0,100.0,101.0,13.4,1505.2,348.4,-0.8,1.8,2471.433,13.29,0.015,230.2
2023-05-28T00:16:03,42.805,6.029,-0.004,-0.009,-0.043,103.0,102.0,101.0,13.4,1505.2,339.1,-0.7,1.8,2471.434,13.29,0.009,204.0
2023-05-28T00:19:03,42.805,6.029,-0.022,-0.026,-0.045,104.0,101.0,101.0,13.4,1505.2,320.3,-0.7,1.8,2471.383,13.29,0.034,220.2
2023-05-28T00:22:03,42.805,6.029,-0.008,-0.04,-0.047,103.0,102.0,101.0,13.4,1505.2,319.6,-0.7,1.8,2471.426,13.29,0.04,191.3
2023-05-28T00:25:03,42.805,6.029,-0.019,-0.011,-0.05,103.0,102.0,100.0,13.4,1505.2,329.1,-0.8,1.8,2471.435,13.29,0.021,239.9
2023-05-28T00:28:03,42.805,6.029,-0.022,0.023,-0.001,103.0,102.0,101.0,13.4,1505.2,347.5,-0.8,1.9,2471.432,13.29,0.031,316.3
2023-05-28T00:31:03,42.805,6.029,-0.012,-0.013,-0.014,102.0,103.0,101.0,13.4,1505.2,336.0,-0.7,1.8,2471.453,13.29,0.017,222.7
2023-05-28T00:34:03,42.805,6.029,-0.028,-0.02,-0.042,103.0,102.0,101.0,13.4,1505.2,329.0,-0.8,1.8,2471.389,13.29,0.034,234.5
2023-05-28T00:37:03,42.805,6.029,0.004,-0.02,-0.05,102.0,103.0,101.0,13.4,1505.2,327.5,-0.8,1.8,2471.43,13.29,0.02,168.7
2023-05-28T00:40:03,42.805,6.029,-0.003,-0.016,-0.033,102.0,101.0,101.0,13.3,1505.2,328.8,-0.8,1.8,2471.386,13.29,0.016,190.6
2023-05-28T00:43:03,42.805,6.029,-0.002,-0.028,-0.035,104.0,101.0,103.0,13.3,1505.2,327.9,-0.8,1.8,2471.429,13.29,0.028,184.1
2023-05-28T00:46:03,42.805,6.029,-0.021,-0.017,-0.038,102.0,101.0,102.0,13.4,1505.2,332.1,-0.8,1.8,2471.439,13.29,0.027,231.0
2023-05-28T00:49:03,42.805,6.029,-0.007,-0.03,-0.002,103.0,104.0,100.0,13.4,1505.2,331.8,-0.8,1.8,2471.405,13.29,0.03,193.1
2023-05-28T00:52:03,42.805,6.029,-0.01,-0.015,-0.034,102.0,104.0,102.0,13.4,1505.2,342.5,-0.8,1.8,2471.399,13.29,0.018,213.7
2023-05-28T00:55:03,42.805,6.029,-0.008,0.0,-0.044,104.0,102.0,101.0,13.3,1505.2,322.4,-0.7,1.9,2471.441,13.29,0.008,270.0
2023-05-28T00:58:03,42.805,6.029,-0.016,-0.032,-0.021,104.0,101.0,102.0,13.4,1505.2,332.9,-0.7,1.8,2471.429,13.29,0.035,206.6
2023-05-28T01:04:03,42.805,6.029,-0.008,-0.005,-0.035,103.0,104.0,101.0,13.4,1505.2,349.9,-0.7,1.8,2471.493,13.28,0.009,238.0
2023-05-28T01:07:03,42.805,6.029,-0.012,-0.009,-0.051,103.0,102.0,101.0,13.4,1505.2,341.2,-0.8,1.8,2471.478,13.29,0.015,233.1
2023-05-28T01:10:03,42.805,6.029,-0.025,0.005,-0.048,101.0,102.0,101.0,13.4,1505.2,333.4,-0.8,1.8,2471.439,13.29,0.025,281.3
2023-05-28T01:13:03,42.805,6.029,-0.005,-0.018,-0.027,103.0,102.0,101.0,13.4,1505.2,336.3,-0.8,1.8,2471.447,13.29,0.018,195.5
2023-05-28T01:16:03,42.805,6.029,-0.019,-0.014,-0.045,103.0,102.0,101.0,13.4,1505.2,338.5,-0.8,1.8,2471.463,13.29,0.023,233.6
2023-05-28T01:19:03,42.805,6.029,0.005,-0.028,-0.053,103.0,102.0,100.0,13.3,1505.2,323.1,-0.8,1.8,2471.449,13.29,0.028,169.9
2023-05-28T01:22:03,42.805,6.029,-0.034,-0.019,-0.031,104.0,101.0,101.0,13.4,1505.2,334.9,-0.8,1.8,2471.463,13.29,0.038,240.8
2023-05-28T01:25:03,42.805,6.029,-0.021,-0.007,-0.038,103.0,102.0,101.0,13.4,1505.2,340.4,-0.8,1.8,2471.441,13.29,0.022,251.6
2023-05-28T01:28:03,42.805,6.029,-0.016,-0.007,-0.035,103.0,101.0,101.0,13.4,1505.2,321.0,-0.8,1.8,2471.423,13.29,0.017,246.4
2023-05-28T01:31:03,42.805,6.029,-0.027,-0.029,-0.009,104.0,103.0,99.0,13.4,1505.2,326.6,-0.8,1.8,2471.425,13.29,0.039,223.0
2023-05-28T01:34:03,42.805,6.029,-0.05,0.002,-0.055,101.0,103.0,101.0,13.4,1505.2,336.5,-0.8,1.8,2471.421,13.29,0.05,272.3
2023-05-28T01:37:03,42.805,6.029,-0.006,-0.011,-0.027,102.0,103.0,101.0,13.4,1505.2,339.3,-0.7,1.8,2471.416,13.29,0.012,208.6
2023-05-28T01:40:03,42.805,6.029,-0.009,-0.028,-0.044,101.0,101.0,102.0,13.4,1505.2,321.9,-0.7,1.8,2471.455,13.29,0.029,197.8
2023-05-28T01:43:03,42.805,6.029,-0.039,-0.018,-0.033,104.0,100.0,102.0,13.3,1505.2,335.5,-0.8,1.8,2471.437,13.29,0.042,245.2
2023-05-28T01:46:03,42.805,6.029,-0.026,-0.014,-0.052,102.0,101.0,102.0,13.4,1505.2,341.5,-0.8,1.8,2471.383,13.29,0.029,241.7
2023-05-28T01:49:03,42.805,6.029,-0.004,0.001,-0.009,101.0,103.0,101.0,13.4,1505.2,343.6,-0.8,1.8,2471.452,13.29,0.004,284.0
2023-05-28T01:52:03,42.805,6.029,-0.033,0.006,-0.022,103.0,102.0,101.0,13.4,1505.2,332.9,-0.8,1.8,2471.463,13.29,0.033,280.3
2023-05-28T01:55:03,42.805,6.029,-0.03,0.002,-0.03,102.0,102.0,101.0,13.4,1505.2,326.3,-0.7,1.8,2471.402,13.29,0.03,273.8
2023-05-28T01:58:03,42.805,6.029,-0.014,-0.021,-0.021,101.0,104.0,101.0,13.4,1505.2,331.9,-0.8,1.8,2471.446,13.29,0.025,213.7
2023-05-28T02:04:03,42.805,6.029,-0.012,-0.004,-0.041,103.0,102.0,101.0,13.4,1505.2,326.6,-0.8,1.8,2471.518,13.28,0.012,251.6
2023-05-28T02:07:03,42.805,6.029,-0.025,-0.012,-0.018,102.0,102.0,102.0,13.4,1505.2,334.3,-0.8,1.8,2471.493,13.28,0.027,244.4
2023-05-28T02:10:03,42.805,6.029,-0.026,-0.022,-0.065,102.0,102.0,101.0,13.4,1505.2,334.3,-0.7,1.8,2471.469,13.29,0.034,229.8
2023-05-28T02:13:03,42.805,6.029,0.016,-0.019,0.002,102.0,102.0,100.0,13.3,1505.2,336.1,-0.8,1.8,2471.466,13.29,0.024,139.9
2023-05-28T02:16:03,42.805,6.029,-0.011,-0.024,-0.047,102.0,103.0,101.0,13.3,1505.2,327.8,-0.8,1.9,2471.488,13.29,0.026,204.6
2023-05-28T02:19:03,42.805,6.029,-0.017,-0.014,-0.024,102.0,103.0,100.0,13.4,1505.2,340.0,-0.8,1.8,2471.438,13.29,0.022,230.5
2023-05-28T02:22:03,42.805,6.029,-0.019,-0.022,-0.021,103.0,101.0,101.0,13.3,1505.2,347.5,-0.7,1.8,2471.409,13.29,0.029,220.8
2023-05-28T02:25:03,42.805,6.029,-0.012,-0.02,-0.027,101.0,103.0,101.0,13.3,1505.2,348.0,-0.8,1.8,2471.474,13.29,0.023,211.0
2023-05-28T02:28:03,42.805,6.029,-0.03,-0.015,-0.026,102.0,100.0,102.0,13.4,1505.2,346.2,-0.8,1.8,2471.381,13.29,0.033,243.4
2023-05-28T02:31:03,42.805,6.029,-0.02,-0.014,-0.045,103.0,100.0,100.0,13.4,1505.2,343.5,-0.8,1.8,2471.406,13.29,0.024,235.0
2023-05-28T02:34:03,42.805,6.029,-0.01,-0.02,-0.003,102.0,101.0,100.0,13.4,1505.2,346.2,-0.7,1.8,2471.411,13.29,0.022,206.6
2023-05-28T02:37:03,42.805,6.029,-0.016,-0.006,0.0,103.0,100.0,100.0,13.3,1505.2,318.8,-0.7,1.8,2471.416,13.29,0.017,249.4
2023-05-28T02:40:03,42.805,6.029,-0.036,-0.017,-0.034,103.0,102.0,100.0,13.4,1505.2,331.8,-0.8,1.8,2471.413,13.29,0.039,244.7
2023-05-28T02:43:03,42.805,6.029,-0.012,0.0,-0.049,101.0,101.0,101.0,13.3,1505.2,331.3,-0.8,1.8,2471.414,13.29,0.012,270.0
2023-05-28T02:46:03,42.805,6.029,-0.019,-0.007,-0.037,101.0,102.0,101.0,13.4,1505.2,327.3,-0.7,1.8,2471.45,13.29,0.02,249.8
2023-05-28T02:49:03,42.805,6.029,-0.019,-0.021,-0.047,102.0,102.0,100.0,13.3,1505.2,327.1,-0.8,1.8,2471.428,13.29,0.028,222.1
2023-05-28T02:52:03,42.805,6.029,-0.016,-0.018,-0.035,102.0,101.0,100.0,13.4,1505.2,343.8,-0.8,1.8,2471.375,13.29,0.024,221.6
2023-05-28T02:55:03,42.805,6.029,0.008,-0.039,0.006,102.0,101.0,101.0,13.3,1505.2,340.6,-0.7,1.8,2471.44,13.29,0.039,168.4
2023-05-28T02:58:03,42.805,6.029,-0.026,-0.039,-0.059,101.0,101.0,100.0,13.3,1505.2,319.4,-0.7,1.8,2471.405,13.29,0.046,213.7
2023-05-28T03:04:03,42.805,6.029,-0.023,-0.003,-0.02,102.0,101.0,100.0,13.4,1505.2,324.9,-0.8,1.8,2471.438,13.28,0.023,262.6
2023-05-28T03:07:03,42.805,6.029,-0.021,0.0,-0.025,102.0,101.0,100.0,13.3,1505.2,326.8,-0.8,1.8,2471.49,13.28,0.021,270.0
2023-05-28T03:10:03,42.805,6.029,-0.015,-0.021,-0.046,104.0,100.0,101.0,13.4,1505.2,340.8,-0.7,1.8,2471.456,13.29,0.025,215.5
2023-05-28T03:13:03,42.805,6.029,-0.024,-0.021,-0.047,102.0,100.0,101.0,13.4,1505.2,336.9,-0.8,1.8,2471.426,13.29,0.031,228.8
2023-05-28T03:16:03,42.805,6.029,-0.01,-0.006,-0.022,103.0,101.0,100.0,13.4,1505.2,345.3,-0.8,1.8,2471.421,13.29,0.011,239.0
2023-05-28T03:19:03,42.805,6.029,-0.038,-0.007,-0.048,103.0,101.0,100.0,13.4,1505.2,340.8,-0.8,1.8,2471.402,13.29,0.038,259.6
2023-05-28T03:22:03,42.805,6.029,0.006,-0.029,-0.056,102.0,101.0,100.0,13.4,1505.2,347.0,-0.7,1.8,2471.415,13.29,0.029,168.3
2023-05-28T03:25:03,42.805,6.029,-0.03,-0.022,-0.053,102.0,101.0,100.0,13.4,1505.2,325.1,-0.8,1.8,2471.405,13.29,0.037,233.7
2023-05-28T03:28:03,42.805,6.029,-0.01,-0.016,-0.019,102.0,101.0,100.0,13.4,1505.2,339.0,-0.8,1.8,2471.408,13.29,0.018,212.0
2023-05-28T03:31:03,42.805,6.029,0.011,-0.023,-0.09,103.0,101.0,99.0,13.4,1505.2,321.3,-0.8,1.8,2471.412,13.29,0.025,154.4
2023-05-28T03:34:03,42.805,6.029,-0.02,-0.025,-0.028,102.0,100.0,101.0,13.4,1505.2,345.7,-0.8,1.8,2471.394,13.29,0.032,218.7
2023-05-28T03:37:03,42.805,6.029,-0.012,-0.001,-0.031,102.0,102.0,100.0,13.4,1505.2,338.4,-0.8,1.8,2471.418,13.29,0.012,265.2
2023-05-28T03:40:03,42.805,6.029,-0.004,-0.017,-0.034,102.0,101.0,101.0,13.4,1505.2,327.8,-0.8,1.8,2471.406,13.29,0.017,193.2
2023-05-28T03:43:03,42.805,6.029,-0.011,-0.006,-0.026,101.0,101.0,100.0,13.4,1505.2,336.1,-0.8,1.8,2471.395,13.29,0.012,241.4
2023-05-28T03:46:03,42.805,6.029,0.0,-0.022,-0.042,102.0,101.0,100.0,13.4,1505.2,336.1,-0.8,1.8,2471.407,13.29,0.022,180.0
2023-05-28T03:49:03,42.805,6.029,-0.009,-0.01,-0.017,101.0,101.0,100.0,13.4,1505.2,324.5,-0.7,1.8,2471.385,13.29,0.013,222.0
2023-05-28T03:52:03,42.805,6.029,-0.007,-0.011,-0.062,102.0,101.0,101.0,13.4,1505.2,331.2,-0.8,1.8,2471.387,13.29,0.013,212.5
2023-05-28T03:55:03,42.805,6.029,0.004,-0.006,-0.014,101.0,101.0,100.0,13.4,1505.2,336.1,-0.8,1.8,2471.408,13.29,0.007,146.3
2023-05-28T03:58:03,42.805,6.029,-0.023,0.012,-0.047,101.0,101.0,99.0,13.3,1505.2,332.5,-0.8,1.8,2471.402,13.29,0.025,297.6
2023-05-28T04:04:03,42.805,6.029,-0.017,-0.03,-0.028,102.0,101.0,101.0,13.4,1505.2,317.6,-0.8,1.8,2471.459,13.28,0.034,209.5
2023-05-28T04:07:03,42.805,6.029,-0.002,-0.028,-0.024,101.0,101.0,101.0,13.3,1505.2,320.1,-0.8,1.8,2471.395,13.28,0.028,184.1
2023-05-28T04:10:03,42.805,6.029,-0.007,-0.034,-0.068,102.0,102.0,100.0,13.4,1505.2,328.4,-0.7,1.8,2471.411,13.29,0.034,191.6
2023-05-28T04:13:03,42.805,6.029,-0.002,-0.002,-0.021,102.0,100.0,100.0,13.4,1505.2,326.8,-0.8,1.8,2471.36,13.29,0.002,225.0
2023-05-28T04:16:03,42.805,6.029,-0.006,0.0,-0.032,101.0,101.0,101.0,13.4,1505.2,340.2,-0.8,1.8,2471.375,13.29,0.006,270.0
2023-05-28T04:19:03,42.805,6.029,-0.007,-0.03,-0.027,102.0,101.0,100.0,13.4,1505.2,326.8,-0.8,1.8,2471.397,13.29,0.03,193.1
2023-05-28T04:22:03,42.805,6.029,-0.031,-0.001,-0.041,100.0,101.0,101.0,13.3,1505.2,326.0,-0.8,1.8,2471.404,13.29,0.031,268.2
2023-05-28T04:25:03,42.805,6.029,-0.02,-0.008,0.002,103.0,101.0,100.0,13.4,1505.2,345.7,-0.8,1.8,2471.399,13.29,0.021,248.2
2023-05-28T04:28:03,42.805,6.029,-0.008,-0.019,-0.028,100.0,102.0,100.0,13.4,1505.2,339.3,-0.8,1.8,2471.402,13.29,0.02,202.8
2023-05-28T04:31:03,42.805,6.029,-0.025,-0.014,-0.032,102.0,100.0,101.0,13.3,1505.2,346.4,-0.7,1.8,2471.396,13.29,0.028,240.7
2023-05-28T04:34:03,42.805,6.029,-0.004,-0.01,-0.038,102.0,101.0,101.0,13.3,1505.2,341.9,-0.8,1.8,2471.398,13.29,0.01,201.8
2023-05-28T04:37:03,42.805,6.029,-0.024,-0.022,-0.052,103.0,101.0,101.0,13.4,1505.2,325.5,-0.8,1.8,2471.398,13.29,0.032,227.5
2023-05-28T04:40:03,42.805,6.029,-0.013,-0.015,-0.042,102.0,101.0,100.0,13.3,1505.2,330.5,-0.8,1.8,2471.4,13.29,0.019,220.9
2023-05-28T04:43:03,42.805,6.029,-0.023,-0.028,-0.032,102.0,101.0,100.0,13.4,1505.2,320.7,-0.8,1.8,2471.401,13.29,0.036,219.4
2023-05-28T04:46:03,42.805,6.029,-0.028,-0.011,-0.031,102.0,100.0,101.0,13.4,1505.2,337.9,-0.8,1.8,2471.427,13.29,0.03,248.6
2023-05-28T04:49:03,42.805,6.029,-0.045,-0.017,-0.052,103.0,100.0,99.0,13.4,1505.2,329.5,-0.8,1.8,2471.403,13.29,0.048,249.3
2023-05-28T04:52:03,42.805,6.029,-0.012,-0.016,-0.049,101.0,100.0,102.0,13.4,1505.2,340.4,-0.7,1.8,2471.392,13.29,0.02,216.9
2023-05-28T04:55:03,42.805,6.029,-0.019,-0.007,-0.031,101.0,100.0,102.0,13.4,1505.2,340.2,-0.8,1.8,2471.385,13.29,0.02,249.8
2023-05-28T04:58:03,42.805,6.029,-0.018,-0.03,-0.045,101.0,102.0,101.0,13.3,1505.2,335.2,-0.8,1.8,2471.402,13.29,0.034,211.0
2023-05-28T05:04:03,42.805,6.029,0.009,-0.028,-0.043,101.0,101.0,100.0,13.4,1505.2,320.8,-0.8,1.8,2471.454,13.28,0.029,162.2
2023-05-28T05:07:03,42.805,6.029,0.0,-0.036,-0.037,102.0,101.0,100.0,13.4,1505.2,322.6,-0.8,1.8,2471.445,13.28,0.036,180.0
2023-05-28T05:10:03,42.805,6.029,-0.03,-0.015,-0.059,102.0,101.0,100.0,13.4,1505.2,335.0,-0.8,1.8,2471.397,13.29,0.033,243.4
2023-05-28T05:13:03,42.805,6.029,-0.009,-0.015,-0.034,102.0,101.0,100.0,13.4,1505.2,331.8,-0.8,1.8,2471.427,13.29,0.017,211.0
2023-05-28T05:16:03,42.805,6.029,-0.014,-0.027,-0.061,102.0,101.0,100.0,13.3,1505.2,331.3,-0.8,1.8,2471.39,13.29,0.03,207.4
2023-05-28T05:19:03,42.805,6.029,-0.035,-0.007,-0.047,102.0,100.0,100.0,13.3,1505.2,335.0,-0.8,1.8,2471.408,13.29,0.035,258.7
2023-05-28T05:22:03,42.805,6.029,-0.023,-0.02,-0.036,103.0,99.0,100.0,13.4,1505.2,333.9,-0.7,1.8,2471.373,13.29,0.03,229.0
2023-05-28T05:25:03,42.805,6.029,-0.024,-0.003,-0.035,100.0,101.0,102.0,13.4,1505.2,322.1,-0.8,1.8,2471.369,13.29,0.024,262.9
2023-05-28T05:28:03,42.805,6.029,0.01,-0.03,-0.035,103.0,102.0,100.0,13.4,1505.2,325.3,-0.8,1.8,2471.4,13.29,0.031,161.6
2023-05-28T05:31:03,42.805,6.029,-0.035,-0.017,-0.067,102.0,101.0,101.0,13.4,1505.2,340.8,-0.8,1.8,2471.363,13.29,0.038,244.1
2023-05-28T05:34:03,42.805,6.029,-0.054,0.014,-0.047,102.0,101.0,100.0,13.4,1505.2,332.9,-0.7,1.8,2471.409,13.29,0.055,284.5
2023-05-28T05:37:03,42.805,6.029,-0.026,-0.004,-0.031,102.0,101.0,100.0,13.4,1505.2,335.2,-0.8,1.8,2471.374,13.29,0.026,261.3
2023-05-28T05:40:03,42.805,6.029,-0.023,0.005,-0.044,102.0,101.0,100.0,13.4,1505.2,330.7,-0.7,1.8,2471.35,13.29,0.023,282.3
2023-05-28T05:43:03,42.805,6.029,-0.023,-0.011,-0.044,102.0,101.0,100.0,13.4,1505.2,334.7,-0.7,1.8,2471.399,13.29,0.025,244.4
2023-05-28T05:46:03,42.805,6.029,-0.038,-0.004,-0.023,101.0,102.0,100.0,13.3,1505.2,334.3,-0.7,1.8,2471.365,13.29,0.038,264.0
2023-05-28T05:49:03,42.805,6.029,-0.007,-0.017,-0.021,101.0,101.0,101.0,13.4,1505.2,336.0,-0.8,1.8,2471.399,13.29,0.018,202.4
2023-05-28T05:52:03,42.805,6.029,-0.041,0.004,-0.019,101.0,101.0,100.0,13.4,1505.2,330.8,-0.8,1.8,2471.396,13.29,0.041,275.6
2023-05-28T05:55:03,42.805,6.029,-0.02,-0.016,-0.045,101.0,102.0,101.0,13.4,1505.2,324.6,-0.7,1.8,2471.367,13.29,0.025,231.3
2023-05-28T05:58:03,42.805,6.029,-0.02,-0.003,-0.036,103.0,99.0,100.0,13.4,1505.2,332.1,-0.8,1.8,2471.346,13.29,0.02,261.5
2023-05-28T06:04:03,42.805,6.029,-0.023,0.003,-0.025,103.0,101.0,99.0,13.4,1505.2,340.2,-0.8,1.8,2471.424,13.28,0.023,277.4
2023-05-28T06:07:03,42.805,6.029,-0.016,-0.005,-0.027,101.0,101.0,100.0,13.4,1505.2,332.1,-0.8,1.8,2471.413,13.28,0.016,252.6
2023-05-28T06:10:03,42.805,6.029,-0.026,-0.001,-0.022,103.0,101.0,100.0,13.4,1505.2,333.4,-0.7,1.8,2471.407,13.29,0.026,267.8
2023-05-28T06:13:03,42.805,6.029,-0.002,-0.008,-0.011,101.0,101.0,101.0,13.3,1505.2,320.7,-0.7,1.8,2471.35,13.29,0.008,194.0
2023-05-28T06:16:03,42.805,6.029,-0.022,0.0,0.0,102.0,101.0,100.0,13.4,1505.2,320.9,-0.8,1.8,2471.359,13.29,0.022,270.0
2023-05-28T06:19:03,42.805,6.029,-0.036,-0.004,-0.036,101.0,102.0,100.0,13.4,1505.2,323.5,-0.8,1.8,2471.363,13.29,0.036,263.7
2023-05-28T06:22:03,42.805,6.029,-0.016,0.002,-0.04,101.0,101.0,101.0,13.4,1505.2,334.8,-0.7,1.8,2471.362,13.29,0.016,277.1
2023-05-28T06:25:03,42.805,6.029,-0.011,0.0,-0.034,101.0,102.0,101.0,13.4,1505.2,339.1,-0.8,1.8,2471.367,13.29,0.011,270.0
2023-05-28T06:28:03,42.805,6.029,-0.017,-0.007,-0.009,102.0,101.0,101.0,13.4,1505.2,337.5,-0.7,1.8,2471.35,13.29,0.018,247.6
2023-05-28T06:31:03,42.805,6.029,-0.01,-0.022,-0.027,101.0,102.0,100.0,13.3,1505.2,327.2,-0.8,1.8,2471.381,13.29,0.024,204.4
2023-05-28T06:34:03,42.805,6.029,0.003,0.003,0.0,103.0,101.0,101.0,13.3,1505.2,333.9,-0.8,1.8,2471.369,13.29,0.004,45.0
2023-05-28T06:37:03,42.805,6.029,-0.014,-0.015,-0.044,102.0,102.0,100.0,13.3,1505.2,333.9,-0.8,1.8,2471.37,13.29,0.02,223.0
2023-05-28T06:40:03,42.805,6.029,-0.025,-0.009,-0.055,102.0,101.0,101.0,13.3,1505.2,336.0,-0.8,1.8,2471.366,13.29,0.026,250.2
2023-05-28T06:43:03,42.805,6.029,-0.017,-0.004,-0.04,102.0,101.0,101.0,13.4,1505.2,327.7,-0.8,1.8,2471.354,13.29,0.017,256.8
2023-05-28T06:46:03,42.805,6.029,-0.018,-0.016,-0.045,101.0,102.0,101.0,13.4,1505.2,333.0,-0.8,1.8,2471.319,13.29,0.024,228.4
2023-05-28T06:49:03,42.805,6.029,-0.012,0.013,-0.023,102.0,102.0,100.0,13.4,1505.2,333.4,-0.8,1.8,2471.299,13.29,0.017,317.3
2023-05-28T06:52:03,42.805,6.029,0.015,-0.01,-0.077,103.0,100.0,100.0,13.3,1505.2,333.4,-0.7,1.8,2471.29,13.29,0.018,123.7
2023-05-28T06:55:03,42.805,6.029,-0.022,-0.017,-0.065,102.0,101.0,100.0,13.4,1505.2,337.0,-0.8,1.8,2471.322,13.29,0.027,232.3
2023-05-28T06:58:03,42.805,6.029,-0.013,-0.006,-0.057,103.0,102.0,101.0,13.4,1505.2,327.8,-0.8,1.8,2471.323,13.29,0.014,245.2
2023-05-28T07:04:03,42.805,6.029,-0.006,0.002,0.026,102.0,101.0,101.0,13.3,1505.2,336.0,-0.8,1.8,2471.333,13.28,0.006,288.4
2023-05-28T07:07:03,42.805,6.029,-0.042,0.021,-0.005,103.0,101.0,100.0,13.4,1505.2,329.4,-0.7,1.8,2471.382,13.28,0.046,296.6
2023-05-28T07:10:03,42.805,6.029,-0.023,0.018,0.007,101.0,101.0,102.0,13.4,1505.2,333.4,-0.8,1.8,2471.352,13.29,0.029,308.0
2023-05-28T07:13:03,42.805,6.029,-0.013,0.001,-0.026,102.0,103.0,100.0,13.4,1505.2,321.4,-0.8,1.8,2471.331,13.29,0.013,274.4
2023-05-28T07:16:03,42.805,6.029,-0.045,-0.006,-0.036,104.0,100.0,101.0,13.3,1505.2,319.4,-0.8,1.8,2471.295,13.29,0.045,262.4
2023-05-28T07:19:03,42.805,6.029,-0.028,-0.019,-0.049,101.0,101.0,102.0,13.4,1505.2,324.8,-0.8,1.8,2471.301,13.29,0.033,235.8
2023-05-28T07:22:03,42.805,6.029,-0.023,0.015,-0.027,101.0,102.0,100.0,13.4,1505.2,338.3,-0.8,1.8,2471.342,13.29,0.027,303.1
2023-05-28T07:25:03,42.805,6.029,-0.016,-0.004,-0.024,101.0,101.0,101.0,13.4,1505.2,344.3,-0.8,1.8,2471.334,13.29,0.016,256.0
2023-05-28T07:28:03,42.805,6.029,-0.02,0.005,-0.016,101.0,101.0,101.0,13.4,1505.2,327.1,-0.8,1.8,2471.314,13.29,0.02,284.0
2023-05-28T07:31:03,42.805,6.029,-0.026,-0.01,-0.034,102.0,101.0,101.0,13.4,1505.2,331.8,-0.8,1.8,2471.317,13.29,0.027,249.0
2023-05-28T07:34:03,42.805,6.029,-0.04,-0.012,-0.054,101.0,101.0,100.0,13.4,1505.2,329.6,-0.8,1.8,2471.296,13.29,0.041,253.3
2023-05-28T07:37:03,42.805,6.029,-0.034,-0.011,-0.041,102.0,101.0,100.0,13.4,1505.2,328.2,-0.7,1.8,2471.329,13.29,0.035,252.1
2023-05-28T07:40:03,42.805,6.029,-0.028,0.004,-0.03,102.0,102.0,100.0,13.4,1505.2,324.6,-0.7,1.8,2471.316,13.29,0.028,278.1
2023-05-28T07:43:03,42.805,6.029,-0.032,0.007,-0.054,102.0,101.0,100.0,13.4,1505.2,337.5,-0.8,1.8,2471.331,13.29,0.032,282.3
2023-05-28T07:46:03,42.805,6.029,-0.027,-0.024,-0.037,101.0,102.0,100.0,13.3,1505.2,321.0,-0.8,1.8,2471.315,13.29,0.036,228.4
2023-05-28T07:49:03,42.805,6.029,-0.024,0.009,-0.014,101.0,101.0,101.0,13.3,1505.2,321.7,-0.7,1.8,2471.297,13.29,0.025,290.6
2023-05-28T07:52:03,42.805,6.029,-0.01,-0.014,-0.021,102.0,101.0,101.0,13.4,1505.2,319.1,-0.7,1.8,2471.269,13.29,0.017,215.5
2023-05-28T07:55:03,42.805,6.029,-0.032,0.022,-0.011,102.0,102.0,100.0,13.4,1505.2,344.0,-0.8,1.8,2471.315,13.29,0.038,304.5
2023-05-28T07:58:03,42.805,6.029,-0.013,0.002,-0.012,102.0,102.0,101.0,13.3,1505.2,347.5,-0.8,1.8,2471.319,13.29,0.013,278.7
2023-05-28T08:04:03,42.805,6.029,-0.01,-0.005,0.006,101.0,101.0,101.0,13.4,1505.2,335.8,-0.8,1.8,2471.352,13.28,0.011,243.4
2023-05-28T08:07:03,42.805,6.029,-0.019,-0.008,0.013,102.0,101.0,100.0,13.4,1505.2,320.9,-0.8,1.8,2471.359,13.28,0.02,247.2
2023-05-28T08:10:03,42.805,6.029,-0.017,-0.004,-0.007,102.0,100.0,100.0,13.4,1505.2,319.4,-0.8,1.8,2471.337,13.29,0.017,256.8
2023-05-28T08:13:03,42.805,6.029,-0.004,0.003,-0.006,101.0,101.0,101.0,13.4,1505.2,324.8,-0.8,1.8,2471.335,13.29,0.005,306.9
2023-05-28T08:16:03,42.805,6.029,-0.058,0.017,-0.008,102.0,100.0,100.0,13.3,1505.2,323.5,-0.7,1.8,2471.321,13.29,0.06,286.3
2023-05-28T08:19:03,42.805,6.029,-0.015,0.01,-0.015,101.0,102.0,100.0,13.3,1505.2,337.5,-0.8,1.8,2471.334,13.29,0.018,303.7
2023-05-28T08:22:03,42.805,6.029,-0.027,-0.003,-0.056,101.0,100.0,100.0,13.4,1505.2,323.5,-0.7,1.8,2471.308,13.29,0.027,263.7
2023-05-28T08:25:03,42.805,6.029,-0.021,0.022,-0.003,101.0,102.0,99.0,13.4,1505.2,336.5,-0.7,1.8,2471.307,13.29,0.03,316.3
2023-05-28T08:28:03,42.805,6.029,-0.035,0.008,-0.046,102.0,101.0,100.0,13.4,1505.2,330.8,-0.8,1.8,2471.295,13.29,0.035,282.9
2023-05-28T08:31:03,42.805,6.029,-0.015,0.006,-0.01,101.0,101.0,99.0,13.3,1505.2,340.1,-0.8,1.9,2471.32,13.29,0.016,291.8
2023-05-28T08:34:03,42.805,6.029,-0.023,-0.007,-0.041,101.0,101.0,101.0,13.4,1505.2,321.8,-0.8,1.8,2471.329,13.29,0.024,253.1
2023-05-28T08:37:03,42.805,6.029,-0.007,0.002,-0.03,102.0,101.0,100.0,13.4,1505.2,319.0,-0.8,1.9,2471.332,13.29,0.007,285.9
2023-05-28T08:40:03,42.805,6.029,-0.031,0.014,-0.014,102.0,101.0,100.0,13.4,1505.2,333.4,-0.7,1.8,2471.314,13.29,0.034,294.3
2023-05-28T08:43:03,42.805,6.029,-0.025,0.02,-0.014,102.0,102.0,100.0,13.4,1505.2,336.3,-0.7,1.8,2471.346,13.29,0.032,308.7
2023-05-28T08:46:03,42.805,6.029,-0.031,0.015,-0.02,102.0,101.0,100.0,13.4,1505.2,328.6,-0.7,1.8,2471.313,13.29,0.034,295.8
2023-05-28T08:49:03,42.805,6.029,-0.029,0.009,-0.053,101.0,100.0,102.0,13.4,1505.2,330.7,-0.7,1.8,2471.267,13.29,0.03,287.2
2023-05-28T08:52:03,42.805,6.029,-0.042,0.009,-0.025,101.0,101.0,101.0,13.4,1505.2,336.0,-0.7,1.8,2471.295,13.29,0.042,282.1
2023-05-28T08:55:03,42.805,6.029,-0.037,0.012,-0.03,101.0,102.0,101.0,13.3,1505.2,324.9,-0.8,1.8,2471.314,13.29,0.038,288.0
2023-05-28T08:58:03,42.805,6.029,-0.007,0.014,-0.021,100.0,102.0,100.0,13.3,1505.2,326.8,-0.8,1.8,2471.299,13.29,0.015,333.4
2023-05-28T09:04:03,42.805,6.029,-0.014,-0.03,-0.055,101.0,100.0,102.0,13.3,1505.2,325.7,-0.8,1.8,2471.341,13.28,0.033,205.0
2023-05-28T09:07:03,42.805,6.029,-0.033,0.0,-0.004,101.0,102.0,100.0,13.4,1505.2,340.2,-0.8,1.8,2471.358,13.29,0.033,270.0
2023-05-28T09:10:03,42.805,6.029,-0.028,-0.001,-0.03,103.0,100.0,101.0,13.4,1505.2,340.5,-0.8,1.8,2471.305,13.29,0.028,268.0
2023-05-28T09:13:03,42.805,6.029,-0.083,0.002,-0.061,102.0,100.0,100.0,13.3,1505.2,331.5,-0.7,1.8,2471.276,13.29,0.083,271.4
2023-05-28T09:16:03,42.805,6.029,-0.023,0.037,-0.025,102.0,102.0,99.0,13.3,1505.2,335.5,-0.7,1.8,2471.279,13.29,0.043,328.1
2023-05-28T09:19:03,42.805,6.029,-0.051,0.005,-0.065,102.0,102.0,100.0,13.4,1505.2,326.6,-0.7,1.8,2471.314,13.29,0.051,275.6
2023-05-28T09:22:03,42.805,6.029,-0.029,-0.017,-0.047,102.0,99.0,101.0,13.4,1505.2,326.3,-0.8,1.8,2471.306,13.29,0.033,239.6
2023-05-28T09:25:03,42.805,6.029,-0.027,0.013,-0.016,101.0,101.0,100.0,13.4,1505.2,333.0,-0.8,1.8,2471.311,13.29,0.029,295.7
2023-05-28T09:28:03,42.805,6.029,-0.036,0.009,-0.044,101.0,101.0,100.0,13.4,1505.2,322.3,-0.8,1.8,2471.302,13.29,0.037,284.0
2023-05-28T09:31:03,42.805,6.029,-0.014,0.0,-0.034,100.0,100.0,100.0,13.4,1505.2,320.3,-0.7,1.8,2471.287,13.29,0.014,270.0
2023-05-28T09:34:03,42.805,6.029,-0.011,0.003,-0.04,101.0,101.0,99.0,13.4,1505.2,323.5,-0.8,1.8,2471.301,13.29,0.011,285.3
2023-05-28T09:37:03,42.805,6.029,-0.025,0.013,-0.024,102.0,100.0,100.0,13.3,1505.2,325.6,-0.7,1.8,2471.269,13.29,0.028,297.5
2023-05-28T09:40:03,42.805,6.029,0.004,-0.004,-0.073,101.0,101.0,100.0,13.3,1505.2,330.7,-0.8,1.8,2471.26,13.29,0.005,135.0
2023-05-28T09:43:03,42.805,6.029,-0.024,0.014,-0.03,102.0,102.0,101.0,13.4,1505.2,328.8,-0.8,1.8,2471.291,13.29,0.027,300.3
2023-05-28T09:46:03,42.805,6.029,-0.055,0.005,-0.043,101.0,101.0,100.0,13.4,1505.2,326.3,-0.8,1.8,2471.312,13.29,0.055,275.2
2023-05-28T09:49:03,42.805,6.029,-0.026,0.005,-0.03,101.0,101.0,100.0,13.3,1505.2,326.6,-0.8,1.8,2471.325,13.29,0.026,280.9
2023-05-28T09:52:03,42.805,6.029,-0.046,0.033,-0.023,101.0,101.0,100.0,13.4,1505.2,333.9,-0.8,1.8,2471.333,13.29,0.056,305.7